Wind_Speed
32 33 33 34 35 36 37 37 38 38 39 40 42 43 45 46 48 49 51 52 54 56 56 58 60 61 62 62 62 61 60 59 59 58 57 56 55 54
33 33 34 34 36 37 38 38 39 39 39 41 43 44 46 47 49 50 51 53 55 56 57 59 61 61 62 62 61 59 58 58 57 56 56 55 54 53
34 34 34 35 36 37 38 38 39 40 40 41 43 45 46 48 49 50 52 54 56 57 58 60 61 61 61 61 59 58 58 57 56 56 56 55 54 53
34 34 34 36 37 38 38 39 39 40 41 42 44 45 47 48 49 51 53 55 56 57 59 60 60 61 60 59 58 58 57 56 56 56 56 55 53 51
34 34 35 37 37 38 38 38 40 41 42 43 44 46 47 48 49 51 54 56 56 58 59 59 60 60 59 58 58 57 57 57 57 56 55 54 52 50
35 35 36 37 37 37 38 39 40 41 42 43 44 46 47 49 49 52 54 55 56 57 58 59 59 59 59 58 58 57 57 57 57 56 55 53 51 49
35 35 36 37 37 38 38 39 40 41 42 43 45 46 47 49 50 53 53 54 55 57 58 59 59 59 58 58 57 57 57 57 56 55 54 52 49 47
35 36 37 37 37 38 39 40 41 42 43 44 45 46 48 49 51 52 53 54 55 57 57 58 58 58 57 57 57 57 57 57 55 53 52 49 46 44
36 36 36 36 37 38 39 40 41 41 42 43 45 46 48 49 51 52 53 55 56 57 57 57 58 57 56 56 56 57 57 56 54 51 49 46 44 42
35 36 36 36 37 38 39 40 41 41 42 43 45 46 48 50 51 52 53 55 56 57 57 57 57 56 56 56 57 57 56 54 52 49 46 44 42 40
35 36 36 37 38 38 39 40 40 41 42 42 44 46 48 49 50 52 53 55 55 56 57 57 56 55 56 57 57 56 54 52 49 46 44 42 40 39
36 36 36 36 37 38 39 40 40 40 41 43 44 46 47 49 50 52 53 54 54 55 57 56 55 55 55 56 56 54 52 49 46 43 41 40 38 37
36 36 36 37 37 38 38 38 39 39 41 42 44 46 47 48 50 51 53 53 54 56 56 56 55 55 55 54 52 51 48 45 43 41 40 38 36 35
35 35 34 35 36 37 37 37 38 39 40 42 44 45 47 48 49 51 52 53 54 55 56 55 54 54 53 51 49 47 46 43 41 40 38 37 35 33
34 34 34 34 35 35 35 36 37 38 40 42 44 45 47 48 50 51 52 53 55 55 55 54 53 53 51 49 46 45 42 41 39 38 37 35 34 32
33 33 33 33 34 34 35 36 37 38 40 42 44 46 47 48 49 50 51 53 55 55 55 53 52 51 49 48 46 43 41 39 38 37 36 34 33 31
32 32 32 32 33 34 34 35 36 38 40 42 44 45 46 48 49 50 52 53 53 53 53 52 51 50 49 47 44 41 39 38 36 36 34 33 31 29
31 31 32 32 32 33 33 35 36 38 40 42 43 45 46 47 49 50 52 52 52 52 51 49 48 48 47 45 42 39 37 36 35 34 32 30 29 28
31 31 31 31 32 33 33 35 36 38 40 42 44 44 45 47 49 50 51 51 51 51 49 47 46 45 43 42 40 38 36 34 33 32 31 29 28 27
30 31 31 31 31 32 33 35 37 39 40 41 42 44 45 47 49 50 51 50 50 50 48 46 45 43 41 39 37 36 34 32 31 30 29 28 28 26
30 30 30 30 31 32 34 35 37 38 39 40 42 44 45 48 49 50 50 49 49 47 46 45 44 42 40 37 35 34 33 31 29 27 26 26 26 25
29 28 29 30 30 32 33 34 35 37 39 40 42 43 45 47 48 49 48 48 47 45 44 43 42 40 37 35 34 32 31 29 28 25 24 24 23 22
28 28 28 29 29 30 31 33 34 37 39 40 41 43 45 47 47 47 48 47 45 43 42 41 40 37 35 34 32 31 29 27 25 24 23 21 20 20
Wind_Direction
276 280 284 287 290 293 295 297 299 301 303 305 307 309 311 313 315 316 317 317 317 317 317 317 318 318 319 319 319 318 318 316 316 315 315 314 312 311
275 280 283 286 290 292 295 297 299 301 303 305 307 309 311 313 315 316 317 318 318 318 317 318 319 319 320 320 320 320 320 319 318 318 318 316 314 313
274 278 282 286 290 292 294 296 298 301 303 306 308 310 312 313 315 316 317 318 318 318 318 319 319 320 321 321 321 321 321 321 320 320 319 318 316 315
273 278 282 286 289 291 294 296 298 301 304 306 308 310 312 314 315 317 318 319 319 319 320 320 321 321 321 321 321 321 322 321 321 321 320 319 318 316
273 278 282 286 289 291 294 296 298 301 304 306 308 310 312 314 315 317 319 319 320 321 321 321 321 322 322 322 322 322 322 321 321 321 321 320 319 318
273 278 282 286 288 291 294 296 299 302 304 306 309 311 312 314 315 317 319 320 321 322 322 322 322 323 323 323 322 322 321 322 322 322 321 321 320 319
273 278 282 285 288 291 294 297 299 301 304 306 308 310 312 313 315 317 319 321 322 322 322 322 323 322 322 322 322 322 322 323 323 323 322 321 321 321
272 277 282 285 287 290 293 296 299 301 303 306 307 309 312 313 315 318 320 321 322 323 323 323 323 323 322 322 323 323 323 324 324 323 323 323 322 322
271 276 281 284 287 290 293 296 300 302 304 306 308 310 312 314 316 318 320 321 323 324 323 324 324 323 323 323 323 324 324 324 324 324 324 323 323 323
272 277 280 283 287 290 293 296 300 302 304 305 308 310 312 315 317 319 320 322 323 324 324 325 324 324 323 323 324 325 325 325 325 325 325 325 325 325
273 277 280 283 287 290 293 296 299 301 304 306 309 311 314 316 318 319 321 323 324 324 325 325 325 324 324 324 325 326 326 326 326 326 326 327 327 327
272 276 279 282 286 289 292 296 299 301 304 307 310 312 315 317 318 320 322 323 324 324 325 325 325 325 325 325 326 327 327 328 328 329 329 329 328 328
272 275 278 282 286 289 292 295 299 302 305 308 311 314 316 318 319 320 322 324 324 325 325 325 325 326 326 326 327 328 329 330 330 331 331 330 330 330
271 275 279 283 286 289 292 296 300 303 306 309 312 315 317 318 320 321 323 324 325 325 326 326 326 326 327 328 329 329 330 331 332 332 332 333 333 333
271 274 279 283 286 289 293 297 300 304 308 310 312 315 317 318 320 322 323 324 325 326 327 327 327 327 328 329 330 330 331 331 332 333 333 333 333 333
270 276 280 283 286 290 294 298 301 305 309 311 313 315 317 319 321 323 324 325 326 326 327 327 327 328 329 330 331 331 331 332 332 333 334 335 334 335
272 277 280 284 287 291 295 299 302 306 309 311 314 316 317 319 321 323 325 325 326 327 327 327 327 329 330 331 332 332 332 333 334 334 335 336 336 337
272 277 281 284 288 292 296 300 303 307 310 312 314 316 318 320 322 324 325 326 326 327 327 327 327 328 330 331 332 332 332 333 335 336 337 337 337 338
274 278 281 283 287 292 297 301 304 307 310 312 315 317 319 321 323 324 326 326 327 327 327 328 328 329 330 330 331 332 332 333 335 337 338 339 338 338
275 279 281 284 288 293 297 301 305 308 310 313 316 318 320 322 324 325 326 326 327 327 327 328 329 330 330 330 330 331 333 334 336 338 339 340 341 341
276 278 281 285 290 294 298 302 306 309 312 315 317 319 321 323 325 326 326 326 327 328 328 329 330 330 330 331 332 333 333 334 336 338 340 342 343 344
275 278 282 287 291 295 299 304 308 311 313 316 318 320 322 324 325 326 326 327 328 329 329 330 331 331 331 332 333 333 335 335 337 340 342 345 347 350
273 278 283 288 292 295 301 306 309 312 315 317 319 321 323 324 325 326 327 328 329 329 330 331 332 332 332 333 333 335 336 338 340 342 345 349 353 356
Height
5752 5751 5750 5749 5748 5746 5743 5741 5738 5735 5731 5725 5721 5716 5710 5704 5698 5692 5684 5677 5669 5661 5652 5644 5635 5625 5616 5606 5595 5585 5575 5565 5556 5547 5539 5531 5523 5515
5744 5744 5743 5741 5740 5738 5735 5733 5729 5726 5723 5718 5713 5708 5702 5695 5689 5683 5675 5667 5659 5650 5642 5633 5623 5613 5603 5593 5583 5573 5563 5553 5544 5535 5526 5518 5510 5502
5737 5736 5735 5734 5732 5730 5728 5725 5721 5718 5714 5710 5704 5699 5693 5687 5680 5673 5666 5658 5649 5640 5631 5621 5612 5602 5592 5582 5572 5562 5552 5542 5532 5524 5514 5506 5497 5490
5729 5728 5728 5726 5724 5722 5720 5717 5713 5709 5706 5701 5696 5691 5685 5678 5671 5664 5656 5648 5639 5630 5620 5610 5601 5591 5581 5571 5561 5551 5541 5531 5522 5513 5504 5495 5486 5478
5721 5721 5720 5718 5717 5714 5712 5708 5705 5701 5697 5693 5688 5682 5676 5670 5662 5655 5646 5638 5628 5619 5610 5600 5590 5580 5570 5560 5550 5541 5531 5522 5512 5502 5492 5483 5475 5467
5713 5713 5712 5710 5708 5706 5704 5700 5697 5693 5689 5685 5680 5674 5668 5661 5654 5646 5638 5628 5619 5609 5599 5590 5580 5570 5560 5551 5541 5531 5521 5511 5501 5491 5481 5472 5464 5456
5705 5705 5704 5702 5700 5698 5695 5692 5689 5685 5681 5676 5671 5665 5659 5652 5645 5638 5629 5620 5611 5600 5590 5581 5571 5561 5551 5541 5531 5521 5511 5500 5490 5481 5471 5462 5453 5445
5697 5697 5696 5694 5692 5690 5687 5684 5681 5677 5673 5668 5663 5657 5650 5644 5636 5628 5620 5612 5604 5595 5583 5572 5562 5551 5541 5531 5521 5511 5501 5491 5480 5470 5461 5452 5444 5436
5689 5688 5687 5686 5684 5682 5679 5676 5672 5668 5664 5660 5654 5648 5642 5635 5628 5620 5610 5601 5592 5584 5574 5564 5552 5542 5531 5521 5512 5502 5491 5481 5471 5461 5451 5443 5435 5428
5681 5680 5679 5678 5676 5673 5670 5667 5664 5660 5656 5651 5646 5639 5632 5625 5618 5610 5601 5592 5582 5573 5563 5555 5544 5533 5522 5512 5502 5492 5482 5472 5462 5452 5443 5435 5427 5420
5672 5672 5671 5670 5667 5665 5662 5659 5656 5651 5646 5642 5636 5630 5623 5616 5609 5601 5592 5583 5574 5564 5554 5545 5535 5525 5514 5502 5492 5482 5472 5463 5453 5444 5435 5427 5420 5413
5664 5664 5663 5661 5659 5656 5654 5651 5647 5643 5638 5633 5627 5621 5614 5607 5599 5591 5583 5574 5565 5557 5546 5536 5526 5516 5507 5495 5483 5473 5463 5454 5445 5437 5429 5421 5414 5407
5656 5655 5654 5653 5651 5648 5645 5642 5639 5634 5630 5625 5619 5613 5606 5598 5590 5582 5574 5565 5556 5546 5537 5527 5517 5506 5496 5487 5476 5465 5456 5448 5439 5430 5423 5415 5408 5402
5647 5647 5646 5644 5642 5640 5637 5634 5630 5626 5622 5616 5611 5604 5597 5589 5581 5573 5565 5556 5547 5538 5528 5518 5508 5498 5489 5479 5469 5460 5450 5441 5434 5426 5418 5410 5404 5397
5638 5638 5637 5636 5634 5631 5629 5626 5622 5618 5613 5608 5602 5596 5589 5581 5573 5565 5556 5547 5538 5529 5519 5509 5499 5490 5480 5471 5462 5454 5445 5437 5428 5421 5413 5406 5400 5394
5630 5629 5628 5627 5626 5624 5621 5618 5614 5610 5605 5600 5594 5587 5580 5573 5565 5557 5548 5539 5529 5518 5509 5500 5491 5482 5473 5464 5455 5447 5439 5432 5424 5416 5409 5402 5395 5389
5621 5621 5620 5619 5618 5616 5613 5610 5606 5602 5597 5591 5585 5579 5572 5564 5556 5548 5540 5531 5521 5512 5502 5492 5482 5474 5465 5457 5449 5441 5433 5426 5419 5412 5404 5398 5391 5386
5613 5613 5613 5612 5610 5608 5605 5602 5598 5594 5589 5583 5577 5570 5563 5556 5548 5540 5531 5522 5513 5504 5495 5485 5476 5467 5458 5450 5444 5436 5429 5421 5414 5407 5401 5394 5388 5383
5606 5606 5605 5604 5602 5600 5597 5594 5590 5586 5580 5575 5569 5562 5555 5548 5540 5532 5523 5514 5505 5496 5487 5479 5470 5462 5454 5445 5438 5431 5424 5417 5410 5404 5398 5391 5386 5381
5598 5598 5597 5596 5594 5592 5589 5586 5582 5577 5572 5567 5560 5554 5547 5540 5532 5523 5515 5506 5497 5488 5480 5471 5463 5455 5448 5441 5433 5426 5419 5413 5407 5401 5395 5389 5383 5378
5590 5590 5589 5588 5586 5584 5581 5578 5574 5569 5564 5559 5552 5546 5539 5531 5523 5515 5506 5498 5489 5481 5473 5465 5457 5449 5442 5435 5428 5421 5415 5409 5404 5398 5393 5388 5382 5377
5582 5582 5581 5580 5578 5576 5573 5570 5566 5561 5556 5550 5544 5537 5530 5523 5515 5507 5498 5490 5482 5474 5466 5458 5450 5443 5436 5430 5424 5417 5411 5406 5400 5395 5391 5386 5381 5376
5574 5574 5573 5572 5570 5568 5565 5562 5558 5553 5548 5542 5536 5529 5522 5515 5507 5499 5491 5483 5475 5467 5459 5452 5445 5438 5431 5426 5420 5414 5408 5403 5398 5393 5389 5384 5380 5376